www.pogodaiklimat.ru

Погода и климат >> Архив погоды >> Россия >> Калмыкия >> Элиста


АРХИВ ПОГОДЫ в Элисте

Время (UTC), дата Ветер
(напр.,м/с)
 
Видим.   Явления Облачность Т
(С)
Тd
(С)
f
(%)
Тe
(С)
Тes
(С)
Комфортность P
(гПа)
Po
(гПа)
Тmin
(С)
Tmax
(С)
R
(мм)
R24
(мм)
S
(см)
18 15.09 С 5
{11}
10 км 4/0
[Ci fib]
+16.8 +4.6 44 +16 +16 по сезону 1019.4 996.2
21 15.09 С 4 10 км 5/0
[Ci fib]
+13.3 +2.3 47 +12 +12 прохладно 1020.1 996.6
00 16.09 СВ 2 н/о н/о +12.7 +2.1 48 +12 +12 по сезону 1020.2 996.7
03 16.09 ЮВ 2 20 км ясно +13.0 +2.7 50 +13 +13 по сезону 1020.2 996.7 +12.2
06 16.09 ЮВ 3 20 км ясно +18.8 +1.4 31 +19 +24 тепло 1019.0 996.0
09 16.09 Ю 3 20 км ясно +22.8 -1.5 20 +22 +31 комфорт 1016.5 993.8
12 16.09 ЮЗ 5 20 км ясно +25.0 +1.1 21 +24 +27 комфорт 1013.4 991.0
15 16.09 Ю 3 20 км ясно +22.3 +1.0 24 +22 +22 комфорт 1012.3 989.7 +25.2
18 16.09 Ю 3 10 км ясно +19.2 +0.9 29 +20 +20 тепло 1012.2 989.4
21 16.09 ЮЗ 3 10 км ясно +17.7 +2.0 35 +18 +18 тепло 1011.6 988.7
00 17.09 СЗ 5 10 км ясно +17.2 -0.3 30 +17 +17 тепло 1011.4 988.4
03 17.09 СЗ 3 20 км 1/0
[Ac trans]
+17.5 -3.9 23 +18 +18 тепло 1011.5 988.6 +14.4
06 17.09 З 5 20 км ясно +19.5 +0.1 27 +19 +22 тепло 1011.4 988.7
09 17.09 З 7-16
{16}
20 км 4/0
[Ac trans]
+24.1 -1.3 19 +23 +25 комфорт 1009.8 987.4
12 17.09 З 7-12
{16}
20 км 8/0
[Ac trans Ci fib]
+26.1 -2.5 15 +24 +25 комфорт 1008.4 986.2
15 17.09 ЮЗ 4
{14}
20 км 8/3 600 м
[Sc Ac trans Ci fib]
+23.5 -1.6 19 +22 +22 комфорт 1008.0 985.6 +26.4
18 17.09 ЮЗ 3 10 км ясно +18.0 +7.2 49 +18 +18 тепло 1009.2 986.4
21 17.09 СЗ 3 10 км 8/3 600 м
[Sc Ac trans Ci fib]
+17.6 +6.4 48 +18 +18 тепло 1009.3 986.4
00 18.09 З 3 10 км 8/4 600 м
[Sc Ac trans Ci fib]
+14.4 +8.4 67 +14 +14 тепло 1010.5 987.4
03 18.09 ЮЗ 4 10 км 10/9 600 м
[Sc Ac trans]
+17.0 +8.5 57 +17 +17 тепло 1010.8 987.9 +14.3
06 18.09 З 6-10
{12}
20 км 8/5 600 м
[Sc Ac trans]
+21.2 +9.7 48 +23 +23 комфорт 1011.1 988.5
09 18.09 З 8-14
{15}
20 км {ливн. осадки} 8/6 600 м
[Cb cap Ac trans]
+20.7 +10.1 51 +22 +22 комфорт 1010.8 988.2
12 18.09 З 9-16
{16}
20 км {ливн. осадки} 4/3 1000 м
[Cu med, cong Ac trans]
+25.7 +8.8 34 +26 +26 жарко 1009.1 986.9
15 18.09 ЮЗ 8-11
{17}
20 км 6/4 600 м
[Cb cap Ac trans Ci fib]
+26.1 +5.9 27 +25 +25 комфорт 1007.3 985.1 +26.6 0.0
18 18.09 З 4
{13}
10 км 5/0
[Ac trans Ci fib]
+21.8 +4.9 33 +22 +22 комфорт 1008.3 985.8
21 18.09 З 5
{17}
10 км 9/6 600 м
[Sc Ac trans]
+16.9 +6.6 51 +16 +16 тепло 1011.4 988.5
00 19.09 З 6
{13}
10 км 9/5 600 м
[Sc Ac trans]
+15.3 +6.5 56 +14 +14 тепло 1013.7 990.6
03 19.09 З 5
{12}
20 км 9/6 600 м
[Cb cap Ac trans]
+12.6 +2.1 49 +11 +11 прохладно 1016.5 993.0 +12.5
06 19.09 З 5
{10}
20 км 6/4 600 м
[Sc Ac trans Ci fib]
+13.7 +2.4 46 +12 +13 прохладно 1018.3 994.9
09 19.09 З 7-12
{13}
20 км 3/0
[Ac trans]
+18.2 -1.1 27 +18 +20 по сезону 1018.3 995.3
12 19.09 З 6-11
{12}
20 км 3/0
[Ac trans]
+19.3 -4.8 19 +19 +20 холодно 1018.3 995.3
15 19.09 З 4
{12}
20 км 3/0
[Ac trans Ci fib]
+16.3 -4.3 24 +16 +16 прохладно 1019.4 996.2 +19.4
18 19.09 СЗ 2 10 км 10/6 600 м
[Cb cap Ac und]
+15.4 -2.0 30 +16 +16 по сезону 1020.1 996.8
21 19.09 СВ 1 10 км слаб. ливневой дождь 10/8 600 м
[Cb cap Ac und]
+13.7 -0.2 38 +14 +14 по сезону 1019.7 996.3
00 20.09 СВ 3 10 км слаб. ливневой дождь 10/6 600 м
[Cb cap Ac trans]
+10.8 +4.6 66 +9 +9 по сезону 1020.3 996.6
03 20.09 ЮВ 2 10 км слаб. ливневой дождь 10/8 600 м
[Cb cap Ac und]
+9.9 +6.4 79 +8 +8 холодно 1020.1 996.4 +9.9 0.8
06 20.09 ЮВ 2 20 км в посл. час ливневой дождь 10/10 300 м
[Sc]
+11.1 +6.4 73 +10 +10 холодно 1020.1 995.7
09 20.09 В 2 20 км {ливн. осадки} 10/8 300 м
[Sc Ac und]
+12.1 +7.9 75 +11 +12 очень
холодно
1018.0 994.5
12 20.09 СВ 4 20 км {ливн. осадки} 10/8 600 м
[Sc Ac und]
+12.7 +8.2 74 +11 +11 очень
холодно
1016.1 992.7
15 20.09 СВ 5 20 км 10/9 300 м
[Cb cap Ac und]
+12.2 +6.3 67 +10 +10 очень
холодно
1014.5 991.1 +13.4 0.7
18 20.09 СВ 7-10
{10}
10 км слаб. ливневой дождь 10/10 300 м
[Cb cap]
+10.1 +6.9 81 +6 +6 очень
холодно
1013.7 990.2
21 20.09 С 8-10
{11}
10 км {ливн. осадки} 10/10 300 м
[Sc]
+8.2 +5.8 85 +3 +3 очень
холодно
1013.0 989.3
00 21.09 С 5
{10}
4000 м слаб. ливневой дождь 10/10 300 м
[Cb cap]
+7.5 +5.8 89 +4 +4 холодно 1014.3 990.6
03 21.09 СВ 1 4000 м дымка {ливн. осадки} 10/10 300 м
[Cb cap]
+7.6 +5.9 89 +7 +7 холодно 1014.0 990.3 +7.2 6
06 21.09 СЗ 6
{11}
2000 м слаб. ливневой дождь {морось} 10/10 300 м
[Cb cap]
+7.7 +5.8 88 +3 +3 очень
холодно
1015.2 991.4
09 21.09 С 6 20 км {ливн. осадки} 10/9 300 м
[Cb cap Ac und]
+11.3 +5.5 67 +8 +9 очень
холодно
1015.4 991.9
12 21.09 СЗ 5 10 км слаб. ливневой дождь 10/9 300 м
[Cb cap Ac trans]
+11.1 +7.1 76 +8 +9 очень
холодно
1015.5 992.0
15 21.09 СЗ 6
{16}
10 км слаб. ливневой дождь 10/10 300 м
[Cb cap]
+9.0 +4.6 74 +5 +5 очень
холодно
1016.1 992.4 +14.1 2
18 21.09 З 4 10 км {ливн. осадки} ясно +7.2 +4.9 85 +4 +4 очень
холодно
1016.8 993.0
21 21.09 З 4 10 км ясно +5.7 +3.8 88 +2 +2 очень
холодно
1017.3 993.3
00 22.09 З 4 4000 м дымка ясно +4.4 +2.7 89 0 0 очень
холодно
1018.2 994.0
03 22.09 З 4 4000 м в посл. час туман ясно +3.9 +2.4 90 -1 -1 очень
холодно
1019.3 995.1 +3.9 0.0
06 22.09 З 6-11
{11}
20 км {туман} 6/3 1000 м
[Cu hum Ac trans Ci fib]
+8.9 +5.1 77 +5 +6 очень
холодно
1019.7 995.9 +3.9
09 22.09 З 9-14
{17}
20 км 8/6 1000 м
[Cu med, cong Ac trans Ci fib]
+13.4 +1.7 45 +11 +11 очень
холодно
1017.5 994.1
12 22.09 З 10-18
{19}
20 км 8/6 600 м
[Cb cap Ac trans Ci fib]
+14.8 +2.0 42 +13 +13 очень
холодно
1015.2 992.0
15 22.09 З 8-16
{20}
20 км 9/8 600 м
[Cb cap Ac trans]
+14.3 +1.7 42 +12 +12 очень
холодно
1014.4 991.2 +15.5

 

Местоположение метеостанции Элиста (Калмыкия, Россия): широта 46.37 долгота 44.33 высота над уровнем моря 153 м.

В архиве по умолчанию представлена погода в Элисте за последнюю неделю. Архивные данные за месяц целиком и за предыдущие месяцы, начиная с января 2011 года, Вы можете получить, выбрав интересующий диапазон дат из раскрывающегося списка и нажав кнопку "Ввод!".


*Определитесь, кто Вы:
робот инопланетянин человек

Внимание! Время в таблицах - всемирное. Для получения местного времени необходимо прибавить поправку, которая равна 3 ч.

Смотрите также архив погоды в соседних городах и на ближайших метеорологических станциях:

Погода в Ремонтном (Ростовская область, Россия) (55 км)
Погода в Ики-Буруле (Калмыкия, Россия) (67 км)
Погода в Яшкуле (Калмыкия, Россия) (81 км)
Погода в Дивном (Ставропольский край, Россия) (91 км)
Погода в Кетченерах (Калмыкия, Россия) (107 км)
Погода в Арзгире (Ставропольский край, Россия) (108 км)
Погода в Утте (Калмыкия, Россия) (130 км)
Погода в Благодарном (Ставропольский край, Россия) (157 км)
Погода в Светлограде (Ставропольский край, Россия) (161 км)
Погода в Зимовниках (Ростовская область, Россия) (166 км)

Пояснения к столбцам:

Ветер - указаны скорость ветра в м/с - средняя за 10 мин, порывы в срок и между сроками (в фигурных скобках) и направление, откуда дует ветер: С - северный, СВ - северо-восточный, В - восточный, ЮВ - юго-восточный, Ю - южный, ЮЗ - юго-западный, З - западный, СЗ - северо-западный.
Видимость - горизонтальная дальность видимости в метрах или километрах. При видимости от 1 до 10 км при отсутствии осадков обычно наблюдается дымка, при ухудшении видимости до 1 км и менее - туман. В сухую погоду видимость может ухудшаться дымом, пылью или мглою.
Явления - указаны атмосферные явления, наблюдавшиеся в срок или в последний час перед сроком; фигурными скобками обозначены явления, наблюдавшиеся между сроками (за 1-3 часа до срока); квадратными скобками обозначены град или гололедные отложения с указанием их диаметра в мм.
Облачность - указаны через наклонную черту общая и нижняя облачность в баллах и высота нижней границы облаков в метрах; квадратными скобками обозначены формы облаков: Ci - перистые, Cs - перисто-слоистые, Cc - перисто-кучевые, Ac - высококучевые, As - высокослоистые, Sc - слоисто-кучевые, Ns - слоисто-дождевые, Cu - кучевые, Cb - кучево-дождевые. Подробнее классификацию облаков см. в Атласе облаков (PDF).
T - Температура воздуха - температура, измеренная на высоте 2 м над землей.
Td - Температура точки росы - температура, при понижении до которой содержащийся в воздухе водяной пар достигнет насыщения.
f - Относительная влажность воздуха - влажноcть воздуха, измеренная на высоте 2 м над землей.
Te - Эффективная температура - температура, которую ощущает одетый по сезону человек в тени. Характеристика душности погоды. При расчете учитывается влияние влажности воздуха и скорости ветра на теплоощущения человека.
Tes - Эффективная температура на солнце - температура, которую ощущает человек, с поправкой на солнечный нагрев. Характеристика знойности погоды. Зависит от высоты солнца над горизонтом, облачности и скорости ветра. Ночью, в пасмурную погоду, а также при ветре 12 м/с и более поправка равна нулю.
P - Атмосферное давление - приведенное к уровню моря атмосферное давление.
Po - Атмосферное давление - измеренное на уровне метеостанции атмосферное давление.
Tmin - Минимальная температура - минимум температуры воздуха на высоте 2 м над землей.
Tmax - Максимальная температура - максимум температуры воздуха на высоте 2 м над землей.
R - Количество осадков - Количество выпавших осадков за период времени, мм. При наведении курсора мыши на число - период времени, за который выпало указанное количество осадков.
R24 - Количество осадков - Количество выпавших осадков за 24 часа, мм.
S - Снежный покров - Высота снежного покрова, см. При наведении курсора мыши на число - состояние снежного покрова и степень покрытия местности в баллах.